• In Belarus
  • List of Countries
  • For 7 days
  • Water Temperature
  • Satellite Maps
  • Weather Map
  • Weather Widgets
  • user-avatar
    Login

    Hourly Weather Yurenevo

    Today, 19 August, Sunday

    Time Temperature Precipitation Wind Pressure Humidity
    00:00 +14°C° 0 mm 2 mps 749 mmHg 85%
    01:00 +14°C° 0 mm 2 mps 749 mmHg 86%
    02:00 +14°C° 0 mm 2 mps 749 mmHg 88%
    03:00 +14°C° 0 mm 2 mps 749 mmHg 89%
    04:00 +14°C° 0 mm 2 mps 748 mmHg 89%
    05:00 +14°C° 0 mm 2 mps 748 mmHg 90%
    06:00 +16°C° 0 mm 2 mps 748 mmHg 83%
    07:00 +18°C° 0 mm 3 mps 748 mmHg 77%
    08:00 +20°C° 0 mm 3 mps 748 mmHg 70%
    09:00 +22°C° 0 mm 4 mps 747 mmHg 65%
    10:00 +23°C° 0 mm 4 mps 747 mmHg 60%
    11:00 +26°C° 0 mm 4 mps 746 mmHg 55%
    12:00 +25°C° 0.6 mm 4 mps 746 mmHg 62%
    13:00 +25°C° 0.6 mm 4 mps 745 mmHg 69%
    14:00 +25°C° 0.6 mm 4 mps 745 mmHg 75%
    15:00 +23°C° 0.5 mm 4 mps 745 mmHg 78%
    16:00 +24°C° 0.5 mm 3 mps 744 mmHg 81%
    17:00 +22°C° 0.5 mm 3 mps 744 mmHg 84%
    18:00 +21°C° 0.2 mm 3 mps 744 mmHg 87%
    19:00 +19°C° 0.2 mm 2 mps 744 mmHg 91%
    20:00 +18°C° 0.2 mm 2 mps 744 mmHg 94%
    21:00 +17°C° 0 mm 2 mps 744 mmHg 94%
    22:00 +17°C° 0 mm 2 mps 744 mmHg 95%
    23:00 +16°C° 0 mm 2 mps 744 mmHg 95%

    Tomorrow, 20 August, Monday

    Time Temperature Precipitation Wind Pressure Humidity
    00:00 +15°C° 0 mm 2 mps 744 mmHg 95%
    01:00 +15°C° 0 mm 2 mps 744 mmHg 95%
    02:00 +15°C° 0 mm 2 mps 744 mmHg 96%
    03:00 +15°C° 0 mm 2 mps 744 mmHg 96%
    04:00 +15°C° 0 mm 2 mps 744 mmHg 97%
    05:00 +15°C° 0 mm 2 mps 744 mmHg 97%
    06:00 +16°C° 0 mm 2 mps 744 mmHg 95%
    07:00 +17°C° 0 mm 2 mps 744 mmHg 92%
    08:00 +17°C° 0 mm 3 mps 744 mmHg 90%
    09:00 +18°C° 0 mm 3 mps 744 mmHg 85%
    10:00 +19°C° 0 mm 3 mps 744 mmHg 79%
    11:00 +20°C° 0 mm 3 mps 744 mmHg 74%
    12:00 +20°C° 0.1 mm 3 mps 744 mmHg 75%
    13:00 +20°C° 0.1 mm 3 mps 743 mmHg 77%
    14:00 +20°C° 0.1 mm 2 mps 743 mmHg 78%
    15:00 +20°C° 0.3 mm 2 mps 743 mmHg 81%
    16:00 +20°C° 0.3 mm 2 mps 742 mmHg 84%
    17:00 +19°C° 0.3 mm 2 mps 742 mmHg 87%
    18:00 +19°C° 0.1 mm 2 mps 741 mmHg 90%
    19:00 +18°C° 0.1 mm 2 mps 741 mmHg 93%
    20:00 +17°C° 0.1 mm 2 mps 741 mmHg 96%
    21:00 +17°C° 0.1 mm 3 mps 740 mmHg 96%
    22:00 +17°C° 0.1 mm 3 mps 739 mmHg 96%
    23:00 +17°C° 0.1 mm 3 mps 739 mmHg 95%

    Day after tomorrow, 21 August, Tuesday

    Time Temperature Precipitation Wind Pressure Humidity
    00:00 +17°C° 0.1 mm 4 mps 738 mmHg 95%
    01:00 +17°C° 0.1 mm 4 mps 737 mmHg 96%
    02:00 +17°C° 0.1 mm 4 mps 736 mmHg 96%
    03:00 +17°C° 0.3 mm 4 mps 736 mmHg 96%
    04:00 +16°C° 0.3 mm 5 mps 735 mmHg 95%
    05:00 +16°C° 0.3 mm 5 mps 734 mmHg 95%
    06:00 +16°C° 0.6 mm 5 mps 734 mmHg 94%
    07:00 +17°C° 0.6 mm 5 mps 734 mmHg 92%
    08:00 +17°C° 0.6 mm 6 mps 734 mmHg 91%
    09:00 +16°C° 0.2 mm 6 mps 734 mmHg 86%
    10:00 +16°C° 0.2 mm 6 mps 734 mmHg 81%
    11:00 +16°C° 0.2 mm 7 mps 735 mmHg 76%
    12:00 +17°C° 0 mm 6 mps 736 mmHg 67%
    13:00 +17°C° 0 mm 6 mps 736 mmHg 59%
    14:00 +19°C° 0 mm 5 mps 737 mmHg 51%
    15:00 +17°C° 0.2 mm 5 mps 737 mmHg 58%
    16:00 +17°C° 0.2 mm 4 mps 738 mmHg 64%
    17:00 +17°C° 0.2 mm 4 mps 738 mmHg 71%
    18:00 +14°C° 0.1 mm 4 mps 739 mmHg 77%
    19:00 +13°C° 0.1 mm 3 mps 739 mmHg 82%
    20:00 +12°C° 0.1 mm 3 mps 739 mmHg 88%
    21:00 +12°C° 0.4 mm 3 mps 739 mmHg 89%
    22:00 +11°C° 0.4 mm 4 mps 740 mmHg 91%
    23:00 +11°C° 0.4 mm 4 mps 740 mmHg 92%

    22 August, Wednesday

    Time Temperature Precipitation Wind Pressure Humidity
    00:00 +10°C° 0.2 mm 4 mps 741 mmHg 92%
    01:00 +10°C° 0.2 mm 4 mps 741 mmHg 93%
    02:00 +8°C° 0.2 mm 4 mps 742 mmHg 93%
    03:00 +8°C° 0 mm 4 mps 742 mmHg 93%
    04:00 +7°C° 0 mm 4 mps 743 mmHg 92%
    05:00 +7°C° 0 mm 4 mps 743 mmHg 92%
    06:00 +8°C° 0 mm 4 mps 744 mmHg 84%
    07:00 +9°C° 0 mm 5 mps 744 mmHg 76%
    08:00 +10°C° 0 mm 5 mps 745 mmHg 69%
    09:00 +13°C° 0 mm 5 mps 745 mmHg 63%
    10:00 +14°C° 0 mm 5 mps 745 mmHg 57%
    11:00 +15°C° 0 mm 5 mps 746 mmHg 51%
    12:00 +15°C° 0 mm 5 mps 746 mmHg 49%
    13:00 +16°C° 0 mm 5 mps 746 mmHg 48%
    14:00 +16°C° 0 mm 5 mps 747 mmHg 47%
    15:00 +17°C° 0 mm 4 mps 747 mmHg 49%
    16:00 +17°C° 0 mm 4 mps 747 mmHg 51%
    17:00 +17°C° 0 mm 3 mps 747 mmHg 53%
    18:00 +14°C° 0 mm 3 mps 748 mmHg 60%
    19:00 +13°C° 0 mm 2 mps 748 mmHg 66%
    20:00 +10°C° 0 mm 2 mps 749 mmHg 73%
    21:00 +9°C° 0 mm 2 mps 749 mmHg 76%
    22:00 +9°C° 0 mm 2 mps 749 mmHg 78%
    23:00 +8°C° 0 mm 2 mps 749 mmHg 81%

    23 August, Thursday

    Time Temperature Precipitation Wind Pressure Humidity
    00:00 +8°C° 0 mm 2 mps 750 mmHg 82%
    01:00 +8°C° 0 mm 2 mps 750 mmHg 83%
    02:00 +7°C° 0 mm 2 mps 750 mmHg 84%
    03:00 +8°C° 0 mm 2 mps 750 mmHg 82%
    04:00 +8°C° 0 mm 2 mps 750 mmHg 80%
    05:00 +9°C° 0 mm 2 mps 750 mmHg 77%
    06:00 +11°C° 0 mm 3 mps 750 mmHg 72%
    07:00 +13°C° 0 mm 3 mps 750 mmHg 67%
    08:00 +14°C° 0 mm 4 mps 750 mmHg 61%
    09:00 +17°C° 0 mm 4 mps 749 mmHg 57%
    10:00 +18°C° 0 mm 4 mps 749 mmHg 53%
    11:00 +20°C° 0 mm 5 mps 749 mmHg 49%
    12:00 +20°C° 0 mm 5 mps 749 mmHg 48%
    13:00 +21°C° 0 mm 5 mps 749 mmHg 47%
    14:00 +22°C° 0 mm 5 mps 748 mmHg 45%
    15:00 +21°C° 0 mm 4 mps 748 mmHg 49%
    16:00 +20°C° 0 mm 3 mps 748 mmHg 52%
    17:00 +20°C° 0 mm 3 mps 748 mmHg 56%
    18:00 +18°C° 0 mm 3 mps 748 mmHg 61%
    19:00 +16°C° 0 mm 3 mps 748 mmHg 67%
    20:00 +14°C° 0 mm 3 mps 748 mmHg 73%
    21:00 +14°C° 0 mm 2 mps 748 mmHg 76%
    22:00 +13°C° 0 mm 2 mps 748 mmHg 78%
    23:00 +13°C° 0 mm 2 mps 748 mmHg 80%

    24 August, Friday

    Time Temperature Precipitation Wind Pressure Humidity
    00:00 +12°C° 0 mm 2 mps 748 mmHg 82%
    01:00 +12°C° 0 mm 2 mps 748 mmHg 84%
    02:00 +12°C° 0 mm 2 mps 748 mmHg 86%
    03:00 +10°C° 0 mm 2 mps 749 mmHg 88%
    04:00 +10°C° 0 mm 2 mps 749 mmHg 90%
    05:00 +10°C° 0 mm 2 mps 749 mmHg 92%
    06:00 +13°C° 0 mm 2 mps 749 mmHg 86%
    07:00 +15°C° 0 mm 2 mps 749 mmHg 79%
    08:00 +17°C° 0 mm 2 mps 749 mmHg 72%
    09:00 +19°C° 0 mm 3 mps 749 mmHg 66%
    10:00 +20°C° 0 mm 3 mps 749 mmHg 59%
    11:00 +22°C° 0 mm 3 mps 749 mmHg 53%
    12:00 +24°C° 0 mm 3 mps 749 mmHg 51%
    13:00 +24°C° 0 mm 3 mps 749 mmHg 50%
    14:00 +25°C° 0 mm 3 mps 748 mmHg 48%
    15:00 +24°C° 0 mm 3 mps 748 mmHg 53%
    16:00 +24°C° 0 mm 2 mps 748 mmHg 58%
    17:00 +23°C° 0 mm 2 mps 748 mmHg 62%
    18:00 +20°C° 0 mm 2 mps 748 mmHg 69%
    19:00 +18°C° 0 mm 2 mps 748 mmHg 76%
    20:00 +16°C° 0 mm 2 mps 748 mmHg 83%
    21:00 +16°C° 0 mm 2 mps 748 mmHg 85%
    22:00 +15°C° 0 mm 2 mps 748 mmHg 86%
    23:00 +14°C° 0 mm 2 mps 748 mmHg 88%
    Show more